When you browse on this site, cookies collect data to enhance your experience and personalize the content and advertising you see.
Visit our Privacy Policy to learn more. By continuing to use the site, you agree to this use of cookies and data.
  • In Switzerland
  • List of Countries
  • For 7 days
  • Water Temperature
  • Weather Map
  • Weather Widgets
  • user-avatar
    Login

    Hourly Weather Lezhe

    Today, 15 November, Friday

    Time Temperature Precipitation Wind Pressure Humidity
    00:00 +12°C° 0 mm 1 mps 734 mmHg 84%
    01:00 +12°C° 0 mm 1 mps 735 mmHg 84%
    02:00 +12°C° 0 mm 1 mps 735 mmHg 83%
    03:00 +12°C° 0 mm 1 mps 735 mmHg 83%
    04:00 +11°C° 0 mm 1 mps 735 mmHg 82%
    05:00 +12°C° 0 mm 2 mps 735 mmHg 81%
    06:00 +12°C° 0 mm 2 mps 735 mmHg 80%
    07:00 +12°C° 0 mm 2 mps 736 mmHg 78%
    08:00 +13°C° 0 mm 2 mps 736 mmHg 72%
    09:00 +15°C° 0 mm 1 mps 736 mmHg 67%
    10:00 +18°C° 0 mm 1 mps 736 mmHg 61%
    11:00 +18°C° 0 mm 1 mps 736 mmHg 58%
    12:00 +19°C° 0 mm 1 mps 736 mmHg 56%
    13:00 +20°C° 0 mm 1 mps 736 mmHg 54%
    14:00 +19°C° 0 mm 1 mps 736 mmHg 59%
    15:00 +18°C° 0 mm 1 mps 736 mmHg 64%
    16:00 +16°C° 0 mm 1 mps 736 mmHg 69%
    17:00 +15°C° 0 mm 1 mps 737 mmHg 70%
    18:00 +15°C° 0 mm 1 mps 737 mmHg 71%
    19:00 +14°C° 0 mm 1 mps 737 mmHg 72%
    20:00 +14°C° 0 mm 2 mps 738 mmHg 73%
    21:00 +14°C° 0 mm 2 mps 738 mmHg 74%
    22:00 +14°C° 0 mm 2 mps 738 mmHg 76%
    23:00 +13°C° 0 mm 2 mps 739 mmHg 77%

    Tomorrow, 16 November, Saturday

    Time Temperature Precipitation Wind Pressure Humidity
    00:00 +13°C° 0 mm 2 mps 739 mmHg 78%
    01:00 +13°C° 0 mm 2 mps 739 mmHg 78%
    02:00 +13°C° 0 mm 2 mps 739 mmHg 78%
    03:00 +13°C° 0 mm 2 mps 739 mmHg 78%
    04:00 +13°C° 0 mm 2 mps 739 mmHg 78%
    05:00 +13°C° 0 mm 2 mps 739 mmHg 77%
    06:00 +13°C° 0 mm 2 mps 739 mmHg 76%
    07:00 +13°C° 0 mm 2 mps 739 mmHg 76%
    08:00 +14°C° 0 mm 2 mps 739 mmHg 72%
    09:00 +16°C° 0 mm 2 mps 739 mmHg 68%
    10:00 +17°C° 0 mm 2 mps 740 mmHg 65%
    11:00 +18°C° 0 mm 2 mps 739 mmHg 63%
    12:00 +19°C° 0 mm 1 mps 739 mmHg 60%
    13:00 +20°C° 0 mm 1 mps 739 mmHg 58%
    14:00 +19°C° 0 mm 1 mps 738 mmHg 62%
    15:00 +18°C° 0 mm 1 mps 738 mmHg 67%
    16:00 +16°C° 0 mm 1 mps 738 mmHg 71%
    17:00 +15°C° 0 mm 1 mps 738 mmHg 72%
    18:00 +15°C° 0 mm 1 mps 738 mmHg 73%
    19:00 +14°C° 0 mm 1 mps 738 mmHg 74%
    20:00 +14°C° 0 mm 1 mps 738 mmHg 74%
    21:00 +14°C° 0 mm 1 mps 738 mmHg 74%
    22:00 +13°C° 0 mm 2 mps 738 mmHg 74%
    23:00 +13°C° 0 mm 2 mps 738 mmHg 74%

    Day after tomorrow, 17 November, Sunday

    Time Temperature Precipitation Wind Pressure Humidity
    00:00 +13°C° 0 mm 2 mps 738 mmHg 74%
    01:00 +12°C° 0 mm 2 mps 738 mmHg 74%
    02:00 +12°C° 0 mm 2 mps 737 mmHg 74%
    03:00 +12°C° 0 mm 2 mps 737 mmHg 74%
    04:00 +12°C° 0 mm 2 mps 736 mmHg 73%
    05:00 +12°C° 0 mm 2 mps 736 mmHg 74%
    06:00 +12°C° 0 mm 2 mps 736 mmHg 74%
    07:00 +12°C° 0 mm 2 mps 736 mmHg 75%
    08:00 +14°C° 0 mm 2 mps 736 mmHg 71%
    09:00 +15°C° 0 mm 2 mps 736 mmHg 68%
    10:00 +16°C° 0 mm 2 mps 736 mmHg 64%
    11:00 +17°C° 0 mm 2 mps 736 mmHg 61%
    12:00 +18°C° 0 mm 2 mps 736 mmHg 59%
    13:00 +20°C° 0 mm 1 mps 736 mmHg 56%
    14:00 +19°C° 0 mm 1 mps 735 mmHg 60%
    15:00 +18°C° 0 mm 1 mps 735 mmHg 65%
    16:00 +16°C° 0 mm 1 mps 735 mmHg 69%
    17:00 +15°C° 0 mm 2 mps 735 mmHg 69%
    18:00 +15°C° 0 mm 2 mps 735 mmHg 69%
    19:00 +14°C° 0 mm 2 mps 735 mmHg 69%
    20:00 +14°C° 0 mm 2 mps 734 mmHg 69%
    21:00 +13°C° 0 mm 3 mps 734 mmHg 70%
    22:00 +12°C° 0 mm 3 mps 734 mmHg 70%
    23:00 +12°C° 1.3 mm 4 mps 734 mmHg 77%

    18 November, Monday

    Time Temperature Precipitation Wind Pressure Humidity
    00:00 +10°C° 1.3 mm 5 mps 734 mmHg 85%
    01:00 +10°C° 1.3 mm 6 mps 734 mmHg 92%
    02:00 +10°C° 1.4 mm 5 mps 735 mmHg 91%
    03:00 +10°C° 1.4 mm 3 mps 735 mmHg 89%
    04:00 +10°C° 1.4 mm 2 mps 735 mmHg 88%
    05:00 +10°C° 0 mm 2 mps 736 mmHg 86%
    06:00 +10°C° 0 mm 2 mps 736 mmHg 85%
    07:00 +11°C° 0 mm 1 mps 736 mmHg 83%
    08:00 +13°C° 0 mm 1 mps 736 mmHg 78%
    09:00 +14°C° 0 mm 1 mps 737 mmHg 74%
    10:00 +16°C° 0 mm 1 mps 737 mmHg 69%
    11:00 +16°C° 0.1 mm 1 mps 737 mmHg 68%
    12:00 +16°C° 0.1 mm 2 mps 737 mmHg 67%
    13:00 +17°C° 0.1 mm 2 mps 737 mmHg 66%
    14:00 +16°C° 0.1 mm 2 mps 737 mmHg 72%
    15:00 +15°C° 0.1 mm 1 mps 737 mmHg 77%
    16:00 +14°C° 0.1 mm 1 mps 737 mmHg 82%
    17:00 +14°C° 0 mm 1 mps 737 mmHg 83%
    18:00 +13°C° 0 mm 1 mps 738 mmHg 84%
    19:00 +12°C° 0 mm 1 mps 738 mmHg 86%
    20:00 +12°C° 0.1 mm 1 mps 738 mmHg 85%
    21:00 +12°C° 0.1 mm 1 mps 738 mmHg 85%
    22:00 +12°C° 0.1 mm 1 mps 738 mmHg 85%
    23:00 +12°C° 0.1 mm 1 mps 738 mmHg 84%

    19 November, Tuesday

    Time Temperature Precipitation Wind Pressure Humidity
    00:00 +11°C° 0.1 mm 1 mps 738 mmHg 84%
    01:00 +11°C° 0.1 mm 1 mps 738 mmHg 83%
    02:00 +11°C° 0.1 mm 1 mps 738 mmHg 83%
    03:00 +10°C° 0.1 mm 2 mps 738 mmHg 84%
    04:00 +10°C° 0.1 mm 2 mps 738 mmHg 84%
    05:00 +10°C° 0.3 mm 2 mps 738 mmHg 84%
    06:00 +10°C° 0.3 mm 2 mps 739 mmHg 84%
    07:00 +11°C° 0.3 mm 1 mps 739 mmHg 84%
    08:00 +13°C° 0.1 mm 1 mps 739 mmHg 79%
    09:00 +14°C° 0.1 mm 1 mps 739 mmHg 74%
    10:00 +15°C° 0.1 mm 1 mps 739 mmHg 69%
    11:00 +16°C° 0.1 mm 2 mps 739 mmHg 69%
    12:00 +16°C° 0.1 mm 2 mps 738 mmHg 69%
    13:00 +16°C° 0.1 mm 2 mps 738 mmHg 69%
    14:00 +15°C° 1.1 mm 2 mps 738 mmHg 77%
    15:00 +14°C° 1.1 mm 2 mps 738 mmHg 85%
    16:00 +13°C° 1.1 mm 2 mps 737 mmHg 94%
    17:00 +12°C° 2 mm 2 mps 738 mmHg 93%
    18:00 +12°C° 2 mm 2 mps 738 mmHg 93%
    19:00 +12°C° 2 mm 2 mps 738 mmHg 93%
    20:00 +12°C° 2 mm 2 mps 738 mmHg 93%
    21:00 +12°C° 2 mm 2 mps 738 mmHg 94%
    22:00 +12°C° 2 mm 2 mps 738 mmHg 94%
    23:00 +12°C° 1.1 mm 2 mps 738 mmHg 94%

    20 November, Wednesday

    Time Temperature Precipitation Wind Pressure Humidity
    00:00 +10°C° 1.1 mm 2 mps 738 mmHg 93%
    01:00 +10°C° 1.1 mm 2 mps 738 mmHg 93%
    02:00 +10°C° 0.3 mm 2 mps 738 mmHg 92%
    03:00 +10°C° 0.3 mm 2 mps 738 mmHg 90%
    04:00 +11°C° 0.3 mm 1 mps 738 mmHg 89%
    05:00 +11°C° 0.1 mm 1 mps 738 mmHg 88%
    06:00 +12°C° 0.1 mm 1 mps 738 mmHg 87%
    07:00 +12°C° 0.1 mm 1 mps 738 mmHg 86%
    08:00 +12°C° 0 mm 1 mps 738 mmHg 82%
    09:00 +13°C° 0 mm 1 mps 738 mmHg 78%
    10:00 +14°C° 0 mm 1 mps 739 mmHg 74%
    11:00 +14°C° 0 mm 1 mps 738 mmHg 72%
    12:00 +15°C° 0 mm 1 mps 738 mmHg 69%
    13:00 +14°C° 0 mm 0 mps 738 mmHg 67%
    14:00 +14°C° 0 mm 0 mps 738 mmHg 71%
    15:00 +13°C° 0 mm 0 mps 738 mmHg 76%
    16:00 +12°C° 0 mm 0 mps 738 mmHg 80%
    17:00 +11°C° 0 mm 0 mps 738 mmHg 82%
    18:00 +11°C° 0 mm 0 mps 739 mmHg 83%
    19:00 +10°C° 0 mm 0 mps 739 mmHg 85%
    20:00 +10°C° 0 mm 0 mps 739 mmHg 85%
    21:00 +10°C° 0 mm 0 mps 739 mmHg 85%
    22:00 +11°C° 0 mm 1 mps 740 mmHg 85%
    23:00 +10°C° 0 mm 1 mps 740 mmHg 85%
    Show more